Location: Homer
(59.6430°N, 151.5480°W)
Time: 13:48:13
(UTC-09:00)

Daily predictions for brighter satellites

Satellite Brightness Start Highest point End
(mag) Time Altitude Azimuth Time Altitude Azimuth Time Altitude Azimuth
Cosmos 1300 3.6 17:36:38 10° N 17:39:59 27° ENE 17:43:18 10° ESE
Cosmos 2263 4.4 17:36:16 10° NW 17:42:06 84° SW 17:47:53 10° SSE
Cosmos 2322 Rocket 3.4 17:38:30 10° WNW 17:43:22 28° NNW 17:48:17 10° NE
ATLAS 2AS CENTAUR R/B 3.9 17:35:59 10° WNW 17:43:50 56° SW 17:51:14 10° SSE
Genesis I 3.9 17:41:14 10° W 17:45:07 45° NNW 17:49:03 10° ENE
Cosmos 1452 Rocket 4.3 17:40:23 10° WSW 17:45:31 48° NW 17:50:41 10° NNE
Cosmos 2184 Rocket 4.4 17:40:10 10° NNW 17:46:34 76° W 17:52:57 10° S
Cosmos 2369 Rocket 2.8 17:41:45 10° NW 17:47:22 65° WSW 17:52:59 10° SSE
MSX 4.3 17:42:15 10° S 17:47:59 68° WSW 17:53:44 10° NNW
In-Cosmos 22 4.3 17:44:18 10° S 17:49:26 53° E 17:54:43 10° NNE
GEOS 3 Rocket 3.8 17:44:43 10° ESE 17:50:03 67° NNE 17:55:27 10° WNW
Cosmos 1110 Rocket 4.0 17:45:19 10° SSW 17:50:29 77° ESE 17:55:42 10° NNE
Cosmos 1656 Rocket 3.6 17:45:09 10° NW 17:50:35 63° NE 17:56:03 10° SE
Cosmos 1461 3.4 17:47:42 10° SSW 17:52:00 56° SE 17:56:33 10° ENE
SJ 16-02 3.5 17:51:20 10° NNW 17:53:01 12° N 17:54:42 10° NNE
COSMO-SKYMED 1 4.3 17:50:53 10° NE 17:53:09 14° E 17:55:25 10° ESE
Resurs 01 Rocket 3.6 17:52:39 10° NE 17:53:43 11° NE 17:54:49 10° NNE
SL-8 Rocket 4.2 17:47:56 10° N 17:53:54 48° ENE 17:59:54 10° SE
CORIOLIS 4.1 17:50:59 10° SSE 17:56:17 69° ENE 18:01:39 10° NNW
ERS-2 3.4 17:54:04 10° ESE 17:56:56 21° NE 17:59:48 10° N
NOSS 2-2 (D) 4.4 17:51:55 10° WNW 17:57:14 81° NNE 18:04:24 10° ESE
Cosmos 1943 Rocket 2.5 17:52:27 10° NW 17:58:05 74° SW 18:03:39 10° SSE
Cosmos 2218 Rocket 4.2 17:53:15 10° N 17:59:12 45° ENE 18:05:05 10° SE
Cosmos 2219 Rocket 2.9 17:53:47 10° WSW 17:59:16 48° NW 18:04:48 10° NE
Cosmos 2228 Rocket 4.4 17:58:51 10° N 18:02:22 21° NE 18:05:53 10° ESE
SJ-7 4.5 17:58:23 10° SSE 18:02:32 88° ENE 18:06:47 10° NNW
SeaSat 1 3.8 17:58:09 10° SSE 18:02:54 46° WSW 18:07:41 10° NW
Cosmos 1484 Rocket 2.7 17:59:28 10° SSE 18:03:16 87° ENE 18:07:01 10° NNW
Meteor 1-24 Rocket 3.9 17:57:34 10° S 18:03:20 68° E 18:09:19 10° NNE
Cosmos 1378 4.3 17:59:56 10° SW 18:03:34 44° WNW 18:07:14 10° N
SL-16 R/B 3.5 17:59:51 10° WNW 18:04:40 27° N 18:09:26 10° NE
NOAA 12 4.5 18:00:10 10° SE 18:05:04 41° ENE 18:09:59 10° N
CSL-04 Rocket 3.8 17:59:44 10° SSE 18:05:18 89° WSW 18:10:50 10° NNW
IRAS Rocket 4.2 18:00:21 10° SSE 18:05:55 81° ENE 18:11:35 10° NNW
NOSS 3-4 (A) 3.9 18:00:16 10° WNW 18:07:01 79° SW 18:14:19 10° SE
NOSS 3-4 (C) 3.9 18:00:22 10° WNW 18:07:07 80° SW 18:14:25 10° SE
CZ-4 R/B 1.5 18:03:17 10° SSE 18:07:30 66° ENE 18:11:43 10° NNW
Cosmos 1842 Rocket 3.9 18:03:05 10° NNW 18:07:34 75° W 18:11:59 10° S
Meteor 2-14 Rocket 4.4 18:02:18 10° NNW 18:08:28 72° ENE 18:14:34 10° SSE
Meteor 1-28 Rocket 4.1 18:06:31 10° NNE 18:09:57 30° E 18:13:22 10° SSE
SL-24 R/B - RUBIN 2 4.1 18:06:12 10° WNW 18:11:02 67° SW 18:15:26 10° SE
RESURS DK-1 3.5 18:07:42 10° NW 18:11:18 27° NNE 18:14:26 12° ENE
Cosmos 1908 3.5 18:08:13 10° NNW 18:12:08 72° W 18:16:00 10° S
CZ-2C R/B 3.8 18:08:08 10° SSW 18:12:33 40° W 18:16:54 10° NNW
Meteor 2-5 Rocket 4.0 18:07:28 10° SSW 18:13:22 80° WNW 18:19:23 10° NNE
Envisat 4.3 18:09:50 10° E 18:13:23 20° NE 18:16:57 10° N
Cosmos 1295 Rocket 4.4 18:07:36 10° NNW 18:13:45 77° ENE 18:19:52 10° SSE
USA 161 1.0 18:12:15 10° NNE 18:14:38 54° E 18:16:48 10° S
Cosmos 2360 Rocket 3.5 18:10:02 10° WNW 18:15:00 29° NNW 18:19:52 10° NE
Cosmos 1867 3.9 18:10:22 10° SSW 18:15:41 56° SE 18:20:29 13° ENE
Cosmos 1726 2.0 18:12:26 10° NNW 18:16:08 80° ENE 18:19:49 10° SSE
Cosmos 1328 Rocket 4.4 18:12:44 10° N 18:16:36 28° ENE 18:20:24 10° ESE
Cosmos 1980 4.3 18:11:05 10° WSW 18:16:39 53° NW 18:22:14 10° NE
Cosmos 1346 Rocket 3.5 18:13:21 10° N 18:16:53 30° ENE 18:20:23 10° ESE
Cosmos 1980 Rocket 3.3 18:13:44 10° NW 18:18:38 28° NNE 18:22:41 14° ENE
NOSS 2-2 (C) 4.5 18:15:05 10° WNW 18:20:30 89° SW 18:27:51 10° ESE
AQUARIUS 4.4 18:16:17 10° SSE 18:20:48 79° WSW 18:25:20 10° NNW
ALOS 2.4 18:19:08 10° SE 18:23:40 52° ENE 18:28:14 10° N
Cosmos 2333 Rocket 3.1 18:21:13 10° WSW 18:26:43 43° NNW 18:32:06 11° NE
Cosmos 1315 Rocket 4.2 18:24:06 10° SE 18:26:49 18° E 18:27:55 16° ENE
Cosmos 1241 Rocket 4.5 18:21:27 10° NW 18:27:43 88° NE 18:33:58 10° SE
FENGYUN 3A 3.7 18:25:37 10° SE 18:30:53 61° ENE 18:36:12 10° NNW
KORONAS-FOTON 4.0 18:27:37 10° S 18:31:17 48° E 18:34:57 10° NNE
COSMOS 2428 3.9 18:27:12 10° W 18:32:24 34° NNW 18:37:16 12° NE
Cosmos 1937 Rocket 4.4 18:28:47 10° NNW 18:33:21 30° NE 18:36:46 16° E
Cosmos 2344 4.1 18:25:53 10° W 18:34:05 73° N 18:43:08 15° ENE
Cosmos 2278 4.3 18:28:55 10° NW 18:34:16 38° NNE 18:38:36 15° E
SL-16 R/B 4.0 18:29:09 10° NNE 18:34:28 31° NW 18:39:46 10° WSW
Cosmos 2366 rocket 4.0 18:29:57 10° N 18:36:13 66° ENE 18:42:24 10° SSE
ATLAS 5 CENTAUR R/B 2.2 18:31:20 10° W 18:36:20 64° NNW 18:40:37 17° ENE
H-2A R/B 3.4 18:33:16 10° SE 18:36:44 32° ENE 18:40:14 10° N
Cosmos 1455 3.1 18:34:43 10° N 18:38:09 28° ENE 18:41:31 10° SE
Ariane Rocket 3.6 18:33:18 10° S 18:38:20 63° WSW 18:43:26 10° NNW
SKYMED 2 4.4 18:38:18 12° NE 18:41:49 30° E 18:45:41 10° SSE
Cosmos 1821 Rocket 4.5 18:36:26 10° N 18:42:01 35° ENE 18:47:38 10° SE
ERBS 3.2 18:38:48 10° W 18:42:05 46° SSW 18:44:54 13° ESE
Okean 3 Rocket 4.0 18:41:17 10° SSE 18:45:34 43° E 18:49:51 10° NNE
Meteor 2-10 4.3 18:41:16 10° NNW 18:46:18 70° WSW 18:51:20 10° S
METEOR-M 4.3 18:41:07 10° SSE 18:46:29 81° WSW 18:51:54 10° NNW
Nadezhda 1 Rocket 4.2 18:40:18 10° SSW 18:46:36 78° WNW 18:53:03 10° NNE
Cosmos 2369 4.1 18:42:58 10° NW 18:48:28 43° NNE 18:52:32 17° E
H-2A R/B 4.0 18:48:27 11° NNE 18:48:41 11° NNE 18:49:58 10° NNE
SL-16 R/B 2.6 18:43:39 10° SW 18:49:19 64° NW 18:54:24 13° NE
CZ-2C R/B 4.1 18:45:17 10° NNE 18:49:53 46° E 18:54:24 10° S
Cosmos 1777 Rocket 4.1 18:46:27 10° NNW 18:51:43 84° WSW 18:56:59 10° SSE
Lacrosse 4 Rocket 1.9 18:48:41 10° WSW 18:52:41 53° NW 18:55:26 19° NE
EO 1 Del DPAF 4.4 18:54:01 23° E 18:54:01 23° E 18:57:02 10° SSE
Cosmos 1151 Rocket 3.5 18:50:11 10° N 18:54:18 37° ENE 18:58:25 10° SE
SPOT 3 Rocket 3.5 18:50:14 10° SSE 18:55:23 76° ENE 19:00:35 10° NNW
Cosmos 1400 Rocket 3.0 18:51:29 10° S 18:55:28 53° E 18:59:03 13° NNE
Cosmos 1674 2.8 18:53:31 10° SSW 18:57:16 77° WNW 19:01:02 10° NNE
Cosmos 1302 Rocket 4.3 18:52:43 10° SW 18:58:01 71° NW 19:02:59 12° NNE
FengYun 1-2 T 4.3 18:52:34 10° SE 18:58:04 57° ENE 19:03:32 10° NNW
YAOGAN 1 3.0 18:54:44 10° S 18:59:03 65° WSW 19:03:24 10° NNW
Meteor 1-21 Rocket 4.3 18:53:54 10° S 18:59:48 71° E 19:05:43 10° NNE
USA 215 3.4 18:55:11 19° E 19:00:10 70° S 19:06:42 10° WSW
Cosmos 1943 3.3 18:55:50 10° SSW 19:01:19 56° ESE 19:05:12 20° NE
Landsat 4 4.4 19:00:48 29° ENE 19:01:35 32° E 19:04:58 10° SSE
Cosmos 1603 3.7 18:57:13 10° SSW 19:02:59 84° SE 19:07:34 17° NE
Cosmos 909 Rocket 4.4 18:55:39 10° NW 19:03:20 80° SW 19:09:46 10° SE
Cosmos 2221 3.8 19:01:23 10° NNW 19:05:34 45° W 19:09:45 10° SSW
Cosmos 1697 Rocket 3.2 19:00:25 10° NW 19:05:43 40° NNE 19:08:22 25° E
Spot 2 Rocket 4.4 19:05:51 25° ENE 19:06:58 28° NE 19:11:12 10° N
Cosmos 1992 Rocket 3.9 19:02:59 10° SSW 19:08:09 68° ESE 19:12:02 18° NE
Geosat 4.1 19:06:43 22° NE 19:09:54 55° ESE 19:14:50 10° SSW
Cosmos 2237 Rocket 3.3 19:05:27 10° W 19:10:43 37° NNW 19:14:51 15° NE
Cosmos 1626 3.0 19:08:14 10° SSE 19:10:54 29° ESE 19:10:54 29° ESE
Cosmos 1656 3.9 19:07:22 10° NW 19:12:40 48° NE 19:15:26 26° E
Meteor 2-2 Rocket 4.3 19:07:26 10° NNW 19:13:17 82° WSW 19:18:58 10° S
Cosmos 1300 3.8 19:12:10 10° NNW 19:15:53 46° W 19:19:34 10° S
CZ-2D R/B 3.9 19:16:19 35° ENE 19:16:19 35° ENE 19:19:43 10° N
NOSS 2-1 (C) 3.7 19:15:37 10° SW 19:19:24 52° SE 19:20:52 35° E
NOSS 2-1 (D) 3.7 19:16:16 10° SW 19:20:03 53° SE 19:21:31 36° E
Cosmos 1898 Rocket 3.6 19:15:39 10° NNW 19:20:56 55° NE 19:24:02 24° ESE
Cosmos 1934 Rocket 4.3 19:15:37 10° N 19:21:43 46° ENE 19:27:49 10° SE
Cosmos 1515 Rocket 3.4 19:17:48 10° N 19:22:11 63° ENE 19:26:29 10° SSE
Cosmos 2098 Rocket 3.4 19:17:37 10° N 19:22:12 78° ENE 19:28:03 10° SSE
Genesis I 3.8 19:19:29 10° WNW 19:23:23 44° N 19:24:19 37° NE
Cosmos 1605 Rocket 4.4 19:18:49 10° N 19:24:31 37° ENE 19:26:45 28° E
SJ-6B 2.8 19:26:58 43° ESE 19:27:44 52° ENE 19:31:25 10° N
GEOS 3 Rocket 4.2 19:22:56 10° SE 19:28:13 58° SW 19:33:35 10° WNW
Cosmos 1340 3.0 19:25:22 10° N 19:28:37 43° NE 19:28:37 43° NE
Cosmos 2322 Rocket 3.3 19:24:08 10° NW 19:29:05 29° NNE 19:30:47 25° NE
Resurs 01 Rocket 2.3 19:29:25 35° NE 19:29:25 35° NE 19:33:08 10° N
COSMO-SKYMED 1 2.5 19:26:54 18° NNE 19:30:09 70° ESE 19:34:30 10° S
ERS-2 2.4 19:26:35 10° S 19:30:17 69° WSW 19:34:00 10° NNW
Cosmos 1461 3.5 19:26:51 10° WSW 19:31:16 57° NNW 19:33:07 33° NE
Cosmos 1408 Rocket 3.5 19:27:52 10° S 19:32:04 56° E 19:33:45 33° NE
Cosmos 1125 Rocket 4.5 19:27:39 10° NNW 19:32:08 28° NNE 19:32:36 27° NE
Cosmos 2181 Rocket 4.2 19:26:13 10° SSW 19:32:40 80° WNW 19:39:07 10° NNE
SJ 16-02 2.9 19:29:56 10° NNW 19:32:47 20° NNE 19:32:47 20° NNE
SL-14 R/B 3.2 19:30:33 10° SSW 19:34:31 87° WNW 19:37:08 21° NNE
FREGAT/IRIS 3.7 19:35:57 33° N 19:35:57 33° N 19:37:45 10° NNW
Cosmos 2239 Rocket 4.4 19:31:52 10° N 19:38:01 66° ENE 19:44:08 10° SSE
Cosmos 2228 Rocket 3.1 19:36:38 10° NNW 19:41:14 88° WSW 19:45:50 10° S
Cosmos 990 Rocket 4.1 19:36:40 10° NNW 19:41:53 56° NE 19:43:25 41° ESE
Meteor 2-10 Rocket 3.7 19:37:21 10° N 19:42:21 46° ENE 19:42:59 43° E
USA 116 4.2 19:39:31 16° N 19:42:40 67° WNW 19:47:06 10° SSW
CZ-4 R/B 4.0 19:39:27 10° SW 19:42:55 24° W 19:46:23 10° NW
USA 161 4.3 19:42:44 10° NNW 19:43:38 11° NW 19:44:30 10° WNW
Meteor 1-28 Rocket 4.4 19:40:31 10° N 19:44:09 42° WNW 19:47:46 10° SW
Cosmos 2219 Rocket 3.6 19:39:40 10° WNW 19:44:31 28° N 19:47:04 20° NNE
Cosmos 1076 Rocket 3.8 19:42:38 10° SSW 19:47:00 68° WNW 19:51:04 12° N
NOSS 2-1 (E) 3.5 19:44:19 10° SW 19:48:17 70° SE 19:49:04 56° E
RESURS DK-1 2.2 19:45:47 10° NW 19:49:59 75° NE 19:50:21 68° E
SL-16 R/B 3.1 19:45:18 10° NW 19:50:23 32° NNE 19:51:18 30° NE
Envisat 2.9 19:49:08 29° SE 19:51:38 65° ENE 19:56:42 10° NNW
Cosmos 1346 Rocket 3.9 19:49:40 10° NNW 19:53:27 44° W 19:57:11 10° S
Cosmos 1328 Rocket 4.2 19:50:21 10° NNW 19:54:42 57° W 19:58:58 10° S
Cosmos 1867 3.8 19:53:54 10° WSW 19:59:21 64° NNW 20:01:09 41° NE
Cosmos 2360 Rocket 3.4 19:55:47 10° NW 20:00:39 28° N 20:01:39 26° NNE
ALOS 4.0 19:57:05 10° SSW 20:01:20 34° W 20:05:37 10° NNW
Cosmos 1315 Rocket 2.9 19:59:02 10° SSW 20:02:57 73° WNW 20:03:42 55° N
Cosmos 1980 Rocket 2.4 19:58:20 10° NW 20:03:53 50° NE 20:04:27 48° ENE
Cosmos 2298 Rocket 3.9 19:59:41 10° NNW 20:05:01 72° NE 20:06:01 57° ESE
H-2A R/B 4.0 20:07:15 10° S 20:10:55 42° W 20:14:40 10° NNW
Cosmos 2333 Rocket 3.6 20:07:29 10° WNW 20:12:24 28° N 20:14:06 24° NNE
NOSS 3-3 (A) 4.0 20:06:10 10° SW 20:12:35 84° SSE 20:14:52 46° ENE
NOSS 3-3 (C) 4.0 20:06:17 10° SW 20:12:42 83° SE 20:15:00 46° ENE
Cosmos 1455 3.3 20:10:16 10° NNW 20:14:01 45° W 20:17:42 10° SSW
Meteor 2-15 4.4 20:08:51 10° S 20:14:50 59° E 20:20:49 10° NNE
Cosmos 1869 4.5 20:10:56 10° NNW 20:13:15 34° NNW 20:13:15 34° NNW
Cosmos 1937 Rocket 3.4 20:10:46 10° NNW 20:16:02 87° ENE 20:16:58 62° SE
Cosmos 1766 Rocket 4.0 20:13:51 10° SSW 20:18:08 59° WNW 20:20:09 29° N
SKYMED 2 4.3 20:15:30 21° N 20:18:14 52° WNW 20:22:27 10° SW
COSMOS 2428 4.0 20:13:24 10° NW 20:18:15 27° N 20:19:16 26° NNE
Cosmos 2278 3.6 20:13:16 10° NW 20:19:01 86° SW 20:20:33 51° SSE
ATLAS 5 CENTAUR R/B 2.2 20:16:20 10° WNW 20:21:36 63° NNE 20:22:11 60° NE
Meteor 1-11 4.2 20:18:16 10° SSW 20:23:54 85° WNW 20:29:02 13° NNE
H-2A R/B 3.7 20:29:05 20° N 20:29:05 20° N 20:31:03 10° N
Cosmos 1821 Rocket 4.2 20:21:49 10° NNW 20:27:55 69° W 20:34:03 10° S
EO 1 Del DPAF 4.2 20:29:14 46° WSW 20:29:14 46° WSW 20:32:12 10° SW
Cosmos 1151 Rocket 4.3 20:27:49 10° NNW 20:31:57 41° W 20:36:04 10° SSW
Lacrosse 4 Rocket 3.0 20:28:37 10° WNW 20:31:45 26° NNW 20:31:45 26° NNW
COSMOS 2406 4.2 20:26:50 10° S 20:30:03 32° S 20:30:03 32° S
Cosmos 2369 3.9 20:27:19 10° NW 20:33:04 71° SW 20:34:31 50° S
SL-16 R/B 3.6 20:29:25 10° W 20:34:27 31° NNW 20:36:17 26° NNE
Cosmos 2150 Rocket 3.9 20:29:48 10° NNW 20:35:01 86° WSW 20:35:01 86° WSW
Resurs 1-3 4.4 20:38:07 45° NNW 20:38:07 45° NNW 20:41:12 10° NNW
Meteor 2-17 Rocket 4.2 20:30:57 10° NNW 20:37:04 81° ENE 20:37:47 69° SE
USA 215 3.2 20:42:32 60° SE 20:43:37 70° S 20:50:10 10° W
Spot 2 Rocket 3.6 20:46:02 71° NW 20:46:02 71° NW 20:50:38 10° NNW
Cosmos 1943 3.9 20:40:04 10° WSW 20:45:33 50° NW 20:47:01 40° N
Cosmos 1626 4.0 20:43:23 10° SW 20:45:36 28° WSW 20:45:36 28° WSW
USA 81 4.2 20:42:39 10° SSW 20:47:55 70° WNW 20:53:14 10° N
Cosmos 2344 4.1 20:40:39 10° WNW 20:49:34 82° NNE 20:53:10 50° ESE
Nadezhda 3 Rocket 4.1 20:43:40 10° SSW 20:50:02 75° WNW 20:56:28 10° NNE
Cosmos 1697 Rocket 2.6 20:44:32 10° NW 20:50:08 80° WSW 20:50:08 80° WSW
Terra 4.4 20:53:53 11° N 20:53:53 11° N 20:54:06 10° N
Cosmos 2237 Rocket 3.6 20:51:32 10° WNW 20:56:16 26° N 20:56:40 26° N
Cosmos 1656 4.0 20:51:09 10° NW 20:56:31 57° WSW 20:56:54 56° SW
ARGOS 4.4 21:07:22 31° N 21:07:22 31° N 21:10:15 10° NNW
Resurs 01 Rocket 3.1 21:07:00 34° NW 21:07:00 34° NW 21:09:51 10° NNW
Cosmos 1605 Rocket 4.2 21:04:15 10° NNW 21:10:23 65° W 21:11:29 55° SW
SJ 16-02 3.5 21:08:19 10° NNW 21:09:47 20° NNW 21:09:47 20° NNW
Cosmos 2322 Rocket 3.1 21:08:40 10° NW 21:12:36 40° NNW 21:12:36 40° NNW
Cosmos 2219 Rocket 3.8 21:25:08 10° NW 21:28:47 27° N 21:28:47 27° N
SL-16 R/B 3.4 21:29:44 10° NW 21:33:11 37° NNW 21:33:11 37° NNW
Cosmos 2360 Rocket 3.7 21:40:24 10° NW 21:43:25 30° NNW 21:43:25 30° NNW
Cosmos 1980 Rocket 3.4 21:42:31 10° NW 21:46:15 39° WNW 21:46:15 39° WNW
Cosmos 2333 Rocket 4.0 21:53:04 10° NW 21:56:06 25° NNW 21:56:06 25° NNW
H-2A R/B 4.4 22:09:42 17° NNW 22:09:42 17° NNW 22:10:53 10° NNW
ATLAS 5 CENTAUR R/B 3.8 22:01:03 10° WNW 22:03:44 31° WNW 22:03:44 31° WNW
SL-16 R/B 4.2 22:15:22 10° NW 22:18:10 22° NNW 22:18:10 22° NNW
Cosmos 2237 Rocket 4.5 22:36:42 10° NW 22:38:30 19° NNW 22:38:30 19° NNW
